Change the Weather History Date:

Wednesday, October 23, 2013

  Actual Average Record
Temperature  
Mean Temperature 70 °F -  
Max Temperature 77 °F 68 °F 89 °F (1996)
Min Temperature 64 °F 50 °F 46 °F (1998)
Cooling Degree Days 6    
Growing Degree Days 20 (Base 50)    
Moisture  
Dew Point 63 °F    
Average Humidity 82    
Maximum Humidity 100    
Minimum Humidity 50    
Precipitation  
Precipitation 0.00 in - - ()
Sea Level Pressure  
Sea Level Pressure 30.01 in    
Wind  
Wind Speed 2 mph ()    
Max Wind Speed 8 mph    
Max Gust Speed -    
Visibility 5.7 miles    
Events      
Averages and records for this station are not official NWS values.
T = Trace of Precipitation, MM = Missing Value Source: Averaged Metar Reports

Daily Weather History Graph

Daily Weather History Graph

Search for Another Location

Airport or City:

Trip Planner

Search our weather history database for the weather conditions in past years. The results will help you decide how hot, cold, wet, or windy it might be!

Date:

Astronomy

Oct. 23, 2013 Rise Set
Actual Time 8:39 AM CEST 7:35 PM CEST
Civil Twilight 8:12 AM CEST 8:02 PM CEST
Nautical Twilight 7:42 AM CEST 8:32 PM CEST
Astronomical Twilight 7:11 AM CEST 9:03 PM CEST
Moon 10:58 PM CEST (10/23) 12:42 PM CEST (10/23)
Length of Visible Light 11h 49m
Length of Day
10h 56m
Waning Gibbous, 81% of the Moon is Illuminated
Oct 23
Waning Gibbous
Oct 27
Last Quarter
Nov 3
New
Nov 10
First Quarter
Nov 17
Full

Hourly Weather History & Observations

Time (CEST) Temp. Dew Point Humidity Pressure Visibility Wind Dir Wind Speed Gust Speed Precip Events Conditions
12:00 AM 66.2 °F 64.4 °F 94% 29.92 in 6.2 mi SSW 4.6 mph - N/A   Scattered Clouds
12:30 AM 64.4 °F 64.4 °F 100% 29.95 in 6.2 mi South 3.5 mph - N/A   Partly Cloudy
1:00 AM 64.4 °F 64.4 °F 100% 29.95 in 6.2 mi SSW 3.5 mph - N/A   Partly Cloudy
4:30 AM 64.4 °F 64.4 °F 100% 29.95 in 6.2 mi Variable 1.2 mph - N/A   Mostly Cloudy
5:00 AM 64.4 °F 64.4 °F 100% 29.95 in 6.2 mi Calm Calm - N/A   Mostly Cloudy
5:30 AM 64.4 °F 64.4 °F 100% 29.95 in 6.2 mi Calm Calm - N/A   Mostly Cloudy
6:00 AM 64.4 °F 64.4 °F 100% 29.98 in 6.2 mi NE 2.3 mph - N/A   Mostly Cloudy
6:30 AM 64.4 °F 64.4 °F 100% 29.98 in 6.2 mi Calm Calm - N/A   Overcast
7:00 AM 64.4 °F 64.4 °F 100% 29.98 in 5.0 mi Calm Calm - N/A   Overcast
7:30 AM 64.4 °F 64.4 °F 100% 29.98 in 3.7 mi Variable 1.2 mph - N/A   Overcast
8:00 AM 64.4 °F 64.4 °F 100% 29.98 in 5.0 mi NNW 2.3 mph - N/A   Mostly Cloudy
8:30 AM 64.4 °F 64.4 °F 100% 29.98 in 3.7 mi Calm Calm - N/A   Mostly Cloudy
9:00 AM 64.4 °F 64.4 °F 100% 29.98 in 3.7 mi Calm Calm - N/A   Mostly Cloudy
9:30 AM 64.4 °F 64.4 °F 100% 30.01 in 3.7 mi SE 1.2 mph - N/A   Scattered Clouds
10:00 AM 66.2 °F 64.4 °F 94% 30.04 in 5.0 mi Variable 2.3 mph - N/A   Mostly Cloudy
10:30 AM 66.2 °F 64.4 °F 94% 30.04 in 4.3 mi Calm Calm - N/A   Mostly Cloudy
11:00 AM 68.0 °F 66.2 °F 94% 30.04 in 4.3 mi Calm Calm - N/A   Scattered Clouds
11:30 AM 68.0 °F 66.2 °F 94% 30.06 in 4.3 mi Calm Calm - N/A   Scattered Clouds
12:00 PM 69.8 °F 64.4 °F 83% 30.06 in 5.6 mi Calm Calm - N/A   Scattered Clouds
12:30 PM 69.8 °F 64.4 °F 83% 30.06 in 6.2 mi SSW 4.6 mph - N/A   Partly Cloudy
1:00 PM 71.6 °F 62.6 °F 73% 30.06 in 6.2 mi South 4.6 mph - N/A   Partly Cloudy
1:30 PM 71.6 °F 62.6 °F 73% 30.06 in 6.2 mi SSW 3.5 mph - N/A   Partly Cloudy
2:00 PM 75.2 °F 59.0 °F 57% 30.06 in 6.2 mi Variable 2.3 mph - N/A   Partly Cloudy
2:30 PM 75.2 °F 59.0 °F 57% 30.04 in 6.2 mi SSW 3.5 mph - N/A   Partly Cloudy
3:00 PM 75.2 °F 55.4 °F 50% 30.04 in 6.2 mi WSW 4.6 mph - N/A   Partly Cloudy
3:30 PM 75.2 °F 55.4 °F 50% 30.01 in 6.2 mi West 2.3 mph - N/A   Partly Cloudy
4:00 PM 75.2 °F 57.2 °F 53% 30.01 in 6.2 mi SW 3.5 mph - N/A   Partly Cloudy
4:30 PM 77.0 °F 59.0 °F 54% 30.01 in 6.2 mi South 3.5 mph - N/A   Partly Cloudy
5:00 PM 75.2 °F 59.0 °F 57% 30.01 in 6.2 mi WSW 6.9 mph - N/A   Partly Cloudy
5:30 PM 75.2 °F 60.8 °F 61% 30.01 in 6.2 mi SW 4.6 mph - N/A   Partly Cloudy
6:00 PM 73.4 °F 60.8 °F 65% 30.01 in 6.2 mi SW 4.6 mph - N/A   Partly Cloudy
6:30 PM 73.4 °F 60.8 °F 65% 30.01 in 6.2 mi SSW 5.8 mph - N/A   Partly Cloudy
7:00 PM 73.4 °F 60.8 °F 65% 30.01 in 6.2 mi SSW 4.6 mph - N/A   Partly Cloudy
7:30 PM 73.4 °F 60.8 °F 65% 30.04 in 6.2 mi SW 8.1 mph - N/A   Partly Cloudy
8:00 PM 71.6 °F 60.8 °F 69% 30.04 in 6.2 mi SW 4.6 mph - N/A   Partly Cloudy
8:30 PM 71.6 °F 62.6 °F 73% 30.04 in 6.2 mi SSW 5.8 mph - N/A   Partly Cloudy
9:00 PM 71.6 °F 64.4 °F 78% 30.04 in 6.2 mi Variable 2.3 mph - N/A   Partly Cloudy
9:30 PM 69.8 °F 64.4 °F 83% 30.04 in 6.2 mi Variable 1.2 mph - N/A   Partly Cloudy
10:00 PM 69.8 °F 64.4 °F 83% 30.04 in 6.2 mi Variable 2.3 mph - N/A   Partly Cloudy
10:30 PM 69.8 °F 64.4 °F 83% 30.04 in 6.2 mi Variable 2.3 mph - N/A   Partly Cloudy
11:00 PM 68.0 °F 66.2 °F 94% 30.04 in 6.2 mi Variable 2.3 mph - N/A   Partly Cloudy
11:30 PM 68.0 °F 66.2 °F 94% 30.04 in 5.6 mi South 2.3 mph - N/A   Partly Cloudy